This is the latest recevied weather packets stored in our database for station/object EA1IDU-11. If no packets are shown the sender has not sent any weather packets the latest 10 day(s).
| Time | Temp. | Humidity | Pressure | Rain* | Wind** | Luminosity | Snow |
|---|---|---|---|---|---|---|---|
| 1777267600 | 15.56° C | 47% | 1026.4 hPa | - | - | - | - |
| 1777266700 | 15° C | 46% | 1026.4 hPa | - | - | - | - |
| 1777265799 | 15° C | 46% | 1026.4 hPa | - | - | - | - |
| 1777264899 | 15.56° C | 46% | 1026.3 hPa | - | - | - | - |
| 1777263999 | 15.56° C | 47% | 1026.3 hPa | - | - | - | - |
| 1777263099 | 15.56° C | 46% | 1026.3 hPa | - | - | - | - |
| 1777262199 | 16.11° C | 45% | 1026.4 hPa | - | - | - | - |
| 1777261299 | 15.56° C | 44% | 1026.6 hPa | - | - | - | - |
| 1777260399 | 15.56° C | 45% | 1026.7 hPa | - | - | - | - |
| 1777259499 | 15.56° C | 44% | 1026.6 hPa | - | - | - | - |
| 1777258599 | 15.56° C | 44% | 1026.7 hPa | - | - | - | - |
| 1777257699 | 15.56° C | 44% | 1026.6 hPa | - | - | - | - |
| 1777256799 | 15.56° C | 44% | 1026.7 hPa | - | - | - | - |
| 1777255898 | 15.56° C | 43% | 1026.7 hPa | - | - | - | - |
| 1777254998 | 16.11° C | 43% | 1026.9 hPa | - | - | - | - |
| 1777254098 | 16.67° C | 41% | 1026.9 hPa | - | - | - | - |
| 1777252298 | 16.11° C | 43% | 1027.2 hPa | - | - | - | - |
| 1777251398 | 16.67° C | 42% | 1027.3 hPa | - | - | - | - |
| 1777250498 | 16.67° C | 41% | 1027.5 hPa | - | - | - | - |
| 1777249598 | 17.22° C | 40% | 1027.6 hPa | - | - | - | - |
| 1777248698 | 17.78° C | 39% | 1027.6 hPa | - | - | - | - |
* Rain since midnight (hover to see other rain measurements)
** Current wind speed in m/s (hover to see current wind gust speed)